Tiempo cada hora Vigo

Hoy, 21 Enero, Jueves

Tiempo Temperatura Precipitaciones Viento Presión Humedad
00:00 +10°C° 0.2 mm 5 mps 749 mmHg 96%
01:00 +10°C° 0.2 mm 5 mps 749 mmHg 96%
02:00 +10°C° 0.2 mm 6 mps 749 mmHg 96%
03:00 +10°C° 0.2 mm 7 mps 749 mmHg 96%
04:00 +11°C° 0.2 mm 7 mps 749 mmHg 96%
05:00 +11°C° 0.2 mm 8 mps 749 mmHg 95%
06:00 +11°C° 1.3 mm 9 mps 748 mmHg 96%
07:00 +11°C° 1.3 mm 10 mps 748 mmHg 96%
08:00 +11°C° 1.3 mm 11 mps 748 mmHg 96%
09:00 +12°C° 2.1 mm 10 mps 748 mmHg 95%
10:00 +12°C° 2.1 mm 10 mps 748 mmHg 94%
11:00 +12°C° 2.1 mm 9 mps 748 mmHg 94%
12:00 +12°C° 0.4 mm 8 mps 748 mmHg 93%
13:00 +12°C° 0.4 mm 8 mps 748 mmHg 92%
14:00 +12°C° 0.4 mm 7 mps 748 mmHg 91%
15:00 +11°C° 0.5 mm 7 mps 748 mmHg 92%
16:00 +11°C° 0.5 mm 7 mps 748 mmHg 92%
17:00 +11°C° 0.5 mm 7 mps 748 mmHg 93%
18:00 +11°C° 0.7 mm 7 mps 748 mmHg 94%
19:00 +11°C° 0.7 mm 8 mps 748 mmHg 94%
20:00 +11°C° 0.7 mm 9 mps 747 mmHg 95%
21:00 +11°C° 1.8 mm 10 mps 746 mmHg 94%
22:00 +12°C° 1.8 mm 12 mps 745 mmHg 93%
23:00 +12°C° 1.8 mm 13 mps 744 mmHg 93%

Mañana, 22 Enero, Viernes

Tiempo Temperatura Precipitaciones Viento Presión Humedad
00:00 +10°C° 1 mm 14 mps 744 mmHg 90%
01:00 +9°C° 1 mm 14 mps 744 mmHg 88%
02:00 +8°C° 1 mm 15 mps 744 mmHg 86%
03:00 +8°C° 1 mm 13 mps 744 mmHg 88%
04:00 +8°C° 1 mm 12 mps 745 mmHg 89%
05:00 +8°C° 1 mm 10 mps 746 mmHg 91%
06:00 +7°C° 1.4 mm 9 mps 747 mmHg 92%
07:00 +7°C° 1.4 mm 8 mps 748 mmHg 94%
08:00 +8°C° 1.4 mm 7 mps 749 mmHg 95%
09:00 +8°C° 0.7 mm 6 mps 750 mmHg 92%
10:00 +8°C° 0.7 mm 6 mps 751 mmHg 90%
11:00 +9°C° 0.7 mm 6 mps 752 mmHg 87%
12:00 +9°C° 0.2 mm 6 mps 752 mmHg 85%
13:00 +9°C° 0.2 mm 6 mps 752 mmHg 83%
14:00 +9°C° 0.2 mm 6 mps 752 mmHg 81%
15:00 +9°C° 0.6 mm 6 mps 753 mmHg 84%
16:00 +8°C° 0.6 mm 7 mps 753 mmHg 86%
17:00 +7°C° 0.6 mm 8 mps 753 mmHg 89%
18:00 +7°C° 0.7 mm 8 mps 753 mmHg 89%
19:00 +7°C° 0.7 mm 8 mps 753 mmHg 89%
20:00 +7°C° 0.7 mm 8 mps 753 mmHg 89%
21:00 +7°C° 0.6 mm 8 mps 753 mmHg 88%
22:00 +7°C° 0.6 mm 8 mps 753 mmHg 88%
23:00 +7°C° 0.6 mm 8 mps 753 mmHg 88%

Pasado mañana, 23 Enero, Sábado

Tiempo Temperatura Precipitaciones Viento Presión Humedad
00:00 +7°C° 0.8 mm 8 mps 753 mmHg 89%
01:00 +7°C° 0.8 mm 8 mps 753 mmHg 91%
02:00 +7°C° 0.8 mm 8 mps 753 mmHg 93%
03:00 +8°C° 1.5 mm 7 mps 753 mmHg 93%
04:00 +8°C° 1.5 mm 7 mps 752 mmHg 94%
05:00 +8°C° 1.5 mm 6 mps 752 mmHg 94%
06:00 +8°C° 1.7 mm 6 mps 752 mmHg 95%
07:00 +8°C° 1.7 mm 5 mps 751 mmHg 96%
08:00 +8°C° 1.7 mm 4 mps 751 mmHg 97%
09:00 +8°C° 5.9 mm 5 mps 750 mmHg 98%
10:00 +9°C° 5.9 mm 6 mps 749 mmHg 98%
11:00 +9°C° 5.9 mm 7 mps 748 mmHg 98%
12:00 +10°C° 2 mm 8 mps 748 mmHg 97%
13:00 +11°C° 2 mm 8 mps 747 mmHg 96%
14:00 +12°C° 2 mm 9 mps 746 mmHg 95%
15:00 +12°C° 0.5 mm 9 mps 746 mmHg 95%
16:00 +11°C° 0.5 mm 9 mps 747 mmHg 94%
17:00 +10°C° 0.5 mm 8 mps 747 mmHg 93%
18:00 +10°C° 0.6 mm 7 mps 748 mmHg 94%
19:00 +9°C° 0.6 mm 5 mps 748 mmHg 94%
20:00 +10°C° 0.6 mm 4 mps 749 mmHg 95%
21:00 +8°C° 0.2 mm 4 mps 750 mmHg 95%
22:00 +8°C° 0.2 mm 4 mps 750 mmHg 95%
23:00 +8°C° 0.2 mm 4 mps 751 mmHg 95%

24 Enero, Domingo

Tiempo Temperatura Precipitaciones Viento Presión Humedad
00:00 +7°C° 0.1 mm 4 mps 751 mmHg 94%
01:00 +7°C° 0.1 mm 3 mps 752 mmHg 94%
02:00 +5°C° 0.1 mm 3 mps 752 mmHg 93%
03:00 +7°C° 0 mm 3 mps 753 mmHg 93%
04:00 +7°C° 0 mm 3 mps 753 mmHg 93%
05:00 +7°C° 0 mm 3 mps 754 mmHg 92%
06:00 +7°C° 0.1 mm 3 mps 754 mmHg 92%
07:00 +8°C° 0.1 mm 2 mps 755 mmHg 91%
08:00 +8°C° 0.1 mm 2 mps 755 mmHg 90%
09:00 +9°C° 0.1 mm 3 mps 755 mmHg 87%
10:00 +9°C° 0.1 mm 3 mps 756 mmHg 85%
11:00 +10°C° 0.1 mm 3 mps 756 mmHg 82%
12:00 +10°C° 0.1 mm 3 mps 756 mmHg 81%
13:00 +10°C° 0.1 mm 3 mps 756 mmHg 81%
14:00 +10°C° 0.1 mm 3 mps 756 mmHg 80%
15:00 +9°C° 0.1 mm 3 mps 756 mmHg 84%
16:00 +9°C° 0.1 mm 2 mps 756 mmHg 88%
17:00 +9°C° 0.1 mm 1 mps 756 mmHg 91%
18:00 +9°C° 0.1 mm 1 mps 757 mmHg 92%
19:00 +9°C° 0.1 mm 1 mps 757 mmHg 92%
20:00 +9°C° 0.1 mm 1 mps 757 mmHg 93%
21:00 +9°C° 0.1 mm 1 mps 757 mmHg 93%
22:00 +8°C° 0.1 mm 2 mps 757 mmHg 94%
23:00 +9°C° 0.1 mm 2 mps 757 mmHg 94%

25 Enero, Lunes

Tiempo Temperatura Precipitaciones Viento Presión Humedad
00:00 +8°C° 0.1 mm 2 mps 757 mmHg 94%
01:00 +8°C° 0.1 mm 2 mps 757 mmHg 95%
02:00 +8°C° 0.1 mm 3 mps 757 mmHg 95%
03:00 +8°C° 0.1 mm 2 mps 757 mmHg 95%
04:00 +8°C° 0.1 mm 2 mps 758 mmHg 94%
05:00 +9°C° 0.1 mm 2 mps 758 mmHg 94%
06:00 +9°C° 0.1 mm 2 mps 758 mmHg 94%
07:00 +9°C° 0.1 mm 3 mps 758 mmHg 94%
08:00 +9°C° 0.1 mm 3 mps 759 mmHg 94%
09:00 +10°C° 0 mm 3 mps 759 mmHg 91%
10:00 +11°C° 0 mm 4 mps 759 mmHg 88%
11:00 +12°C° 0 mm 4 mps 759 mmHg 85%
12:00 +12°C° 0 mm 5 mps 758 mmHg 84%
13:00 +12°C° 0 mm 5 mps 758 mmHg 84%
14:00 +12°C° 0 mm 5 mps 758 mmHg 84%
15:00 +10°C° 0 mm 5 mps 758 mmHg 86%
16:00 +10°C° 0 mm 5 mps 758 mmHg 89%
17:00 +9°C° 0 mm 5 mps 758 mmHg 91%
18:00 +9°C° 0.1 mm 5 mps 758 mmHg 91%
19:00 +9°C° 0.1 mm 5 mps 759 mmHg 91%
20:00 +9°C° 0.1 mm 5 mps 759 mmHg 91%
21:00 +9°C° 0.1 mm 5 mps 759 mmHg 91%
22:00 +9°C° 0.1 mm 5 mps 758 mmHg 91%
23:00 +9°C° 0.1 mm 5 mps 758 mmHg 91%

26 Enero, Martes

Tiempo Temperatura Precipitaciones Viento Presión Humedad
00:00 +9°C° 0.1 mm 5 mps 758 mmHg 92%
01:00 +10°C° 0.1 mm 5 mps 758 mmHg 93%
02:00 +10°C° 0.1 mm 6 mps 758 mmHg 94%
03:00 +10°C° 0.9 mm 6 mps 758 mmHg 95%
04:00 +10°C° 0.9 mm 6 mps 758 mmHg 96%
05:00 +11°C° 0.9 mm 6 mps 757 mmHg 97%
06:00 +11°C° 2.1 mm 6 mps 758 mmHg 97%
07:00 +11°C° 2.1 mm 6 mps 758 mmHg 98%
08:00 +12°C° 2.1 mm 5 mps 758 mmHg 98%
09:00 +13°C° 2 mm 5 mps 759 mmHg 98%
10:00 +13°C° 2 mm 5 mps 759 mmHg 98%
11:00 +13°C° 2 mm 5 mps 759 mmHg 98%
12:00 +13°C° 2.8 mm 5 mps 759 mmHg 98%
13:00 +14°C° 2.8 mm 5 mps 759 mmHg 98%
14:00 +14°C° 2.8 mm 5 mps 758 mmHg 98%
15:00 +14°C° 1.8 mm 5 mps 759 mmHg 98%
16:00 +14°C° 1.8 mm 5 mps 759 mmHg 98%
17:00 +14°C° 1.8 mm 5 mps 759 mmHg 98%
18:00 +14°C° 0.5 mm 5 mps 760 mmHg 98%
19:00 +14°C° 0.5 mm 5 mps 760 mmHg 99%
20:00 +14°C° 0.5 mm 5 mps 760 mmHg 99%
21:00 +14°C° 0.3 mm 4 mps 760 mmHg 99%
22:00 +14°C° 0.3 mm 4 mps 761 mmHg 99%
23:00 +14°C° 0.3 mm 4 mps 761 mmHg 99%
Mostrar más

Necesitamos Su Consentimiento

Meteoprog y nuestros Proveedores de Servicios pueden almacenar y acceder a sus datos personales como cookies, identificadores de dispositivo u otras tecnologías similares de su dispositivo y procesar dichos datos para personalizar contenido y anuncios, además de ofrecer funciones de redes sociales y analizar el tráfico.

  • Almacenar y/o acceder a información en su dispositivo

    Se puede almacenar o acceder a cookies, identificadores de dispositivo u otra información de su dispositivo para los fines anteriormente indicados.

  • Anuncios y contenido personalizados, medición de anuncios y contenido, percepciones del público, y desarrollo de productos

    Los anuncios y el contenido pueden personalizarse en base a su perfil. Se pueden añadir más datos para personalizar mejor los anuncios y contenidos. Se puede medir el rendimiento de los anuncios y contenidos. Se puede obtener la percepción sobre el público que ha visto los anuncios y contenidos. Dichos datos pueden usarse para desarrollar o mejorar la experiencia del usuario, sistemas y software.

Al hacer clic en ‘Estoy De Acuerdo’ usted permitirá el uso de las cookies, identificadores de dispositivo, balizas web u otras tecnologías similares indicadas. Su configuración puede cambiarse desde el navegador de su dispositivo.

Para ciertos fines, los intereses legítimos pueden ser considerados por encima del consentimiento. Puede leer más sobre ello en nuestra Política de Privacidad y Cookies.